| time (UTC) | temp C | wind direction | speed KPH | gust KPH | rain 1hr cm | rain 24hr cm | rain mn cm | humidity % | barometer mb |
| 20260508223416 | 27 | 38 | 3.2 | 0.0 | 0.00 | 0.00 | 0.00 | 53 | 1008.0 |
| 20260508220411 | 27 | 339 | 4.8 | 0.0 | 0.00 | 0.00 | 0.00 | 53 | 1007.0 |
| 20260508203405 | 28 | 289 | 0.0 | 0.0 | 0.00 | 0.00 | 0.00 | 52 | 1007.0 |
| 20260508200400 | 28 | 216 | 6.4 | 0.0 | 0.00 | 0.00 | 0.00 | 48 | 1008.0 |
| 20260508193356 | 28 | 216 | 6.4 | 0.0 | 0.00 | 0.00 | 0.00 | 48 | 1008.0 |
| 20260508184548 | 29 | 218 | 12.9 | 0.0 | 0.00 | 0.00 | 0.00 | 47 | 1008.0 |
| 20260508181544 | 30 | 180 | 11.3 | 0.0 | 0.00 | 0.00 | 0.00 | 40 | 1009.0 |
| 20260508174539 | 30 | 180 | 11.3 | 0.0 | 0.00 | 0.00 | 0.00 | 40 | 1009.0 |
| 20260508171535 | 31 | 129 | 14.5 | 0.0 | 0.00 | 0.00 | 0.00 | 40 | 1009.0 |
| 20260508161530 | 31 | 50 | 3.2 | 0.0 | 0.00 | 0.00 | 0.00 | 40 | 1009.0 |
| 20260508154525 | 31 | 50 | 3.2 | 0.0 | 0.00 | 0.00 | 0.00 | 40 | 1009.0 |
| 20260508151521 | 32 | 298 | 14.5 | 0.0 | 0.00 | 0.00 | 0.00 | 40 | 1008.0 |
| 20260508144516 | 32 | 298 | 14.5 | 0.0 | 0.00 | 0.00 | 0.00 | 40 | 1008.0 |
| 20260508141512 | 32 | 228 | 9.7 | 0.0 | 0.00 | 0.00 | 0.00 | 37 | 1007.0 |
| 20260508134506 | 32 | 228 | 9.7 | 0.0 | 0.00 | 0.00 | 0.00 | 37 | 1007.0 |
| 20260508131501 | 32 | 195 | 19.3 | 0.0 | 0.00 | 0.00 | 0.00 | 35 | 1006.0 |
| 20260508124457 | 32 | 195 | 19.3 | 0.0 | 0.00 | 0.00 | 0.00 | 33 | 1006.0 |
| 20260508115931 | 36 | 194 | 17.7 | 0.0 | 0.00 | 0.00 | 0.00 | 24 | 1005.0 |
| 20260508105926 | 36 | 100 | 9.7 | 0.0 | 0.00 | 0.00 | 0.00 | 22 | 1004.0 |
| 20260508102922 | 36 | 96 | 9.7 | 0.0 | 0.00 | 0.00 | 0.00 | 21 | 1005.0 |
| 20260508095917 | 36 | 96 | 9.7 | 0.0 | 0.00 | 0.00 | 0.00 | 21 | 1005.0 |
| 20260508092913 | 37 | 77 | 12.9 | 0.0 | 0.00 | 0.00 | 0.00 | 21 | 1005.0 |
| 20260508085909 | 37 | 77 | 12.9 | 0.0 | 0.00 | 0.00 | 0.00 | 21 | 1005.0 |
| 20260508082904 | 37 | 79 | 12.9 | 0.0 | 0.00 | 0.00 | 0.00 | 21 | 1006.0 |
| 20260508075900 | 37 | 79 | 12.9 | 0.0 | 0.00 | 0.00 | 0.00 | 21 | 1006.0 |
| 20260508072855 | 36 | 84 | 12.9 | 0.0 | 0.00 | 0.00 | 0.00 | 24 | 1007.0 |
| 20260508065851 | 36 | 84 | 12.9 | 0.0 | 0.00 | 0.00 | 0.00 | 24 | 1007.0 |
| 20260508044005 | 35 | 69 | 12.9 | 0.0 | 0.00 | 0.00 | 0.00 | 25 | 1009.0 |
| 20260508040958 | 33 | 46 | 12.9 | 0.0 | 0.00 | 0.00 | 0.00 | 29 | 1010.0 |
| 20260508033954 | 33 | 46 | 12.9 | 0.0 | 0.00 | 0.00 | 0.00 | 29 | 1010.0 |
| 20260508030950 | 30 | 16 | 8.0 | 0.0 | 0.00 | 0.00 | 0.00 | 38 | 1010.0 |
| 20260508021122 | 28 | 328 | 8.0 | 0.0 | 0.00 | 0.00 | 0.00 | 47 | 1009.0 |
| 20260508014116 | 28 | 328 | 8.0 | 0.0 | 0.00 | 0.00 | 0.00 | 47 | 1009.0 |
| 20260508011112 | 27 | 324 | 8.0 | 0.0 | 0.00 | 0.00 | 0.00 | 55 | 1008.0 |
| 20260508004108 | 27 | 324 | 8.0 | 0.0 | 0.00 | 0.00 | 0.00 | 57 | 1008.0 |
| 20260508001103 | 27 | 331 | 9.7 | 0.0 | 0.00 | 0.00 | 0.00 | 58 | 1008.0 |
| 20260507234059 | 27 | 290 | 1.6 | 0.0 | 0.00 | 0.00 | 0.00 | 58 | 1008.0 |